Terug naar catalogus

ONEWEB-0559

ActiefCommunicatiePO
NORAD 56060·PAYLOAD·🇬🇧 United Kingdom

Gelanceerd Mar 26, 2023 vanaf Satish Dhawan Space Centre

Loading…

Volgende Passages (komende 24 uur)

TLE

VersSource: CelesTrak SupGP

Epoch: Sep 14, 2026, 23:42 UTC

1 56060C 23043Q   26257.98803657 -.00002178  00000+0 -52802-2 0  2572
2 56060  87.9280 226.0988 0002063  77.2856 315.5100 13.21827792    12

Volg ONEWEB-0559 in realtime met AllMySat

Download on the App Store